Weather in Nizhniy Kislyay

Russia / Voronezh Oblast     50°51′04″N   40°09′57″E
temp.,
°C
wind,
m/s
gust,
m/s
humid.,
%
clouds,
%
prec.,
mm/h
press.,
hPa
HPBL,
m
25 february, thu
thu2500:00−13ssw599594 0.3 1037361
03:00−12ssw5109497 0.8 1035396
06:00−11ssw61193100 0.3 1032418
09:00−9sw61193100 0.4 1030420
12:00−6sw71193100 0.3 1028482
15:00−3sw71194100 0.5 1025388
18:00−2sw71395100 0.4 1022385
21:00+1w61297100 1.2 1021417
26 february, fri
fri2600:00+1w41099100 0.3 1020274
03:00+1w51198100 0.7 1020308
06:00+1wnw51199100 0.3 1019307
09:00+1w4999100 0.5 1019238
12:00+2w511100100 0.0 1018286
15:00+3wsw512100100 0.0 1016359
18:00+2w61398100 0.0 1014432
21:00+2w61298100 0.3 1014355
27 february, sat
sat2700:00+2w61396100 0.1 1012364
03:00+1w51196100 0.1 1012399
06:00+1w51295100 0.0 1010494
09:00+1w61297100 0.0 1010509
12:00+2wnw71195100 0.1 1009744
15:00+1w61198100 0.1 1009560
18:00+1wnw61197100 0.1 1008595
21:00+1wnw61097100 0.1 1009523
28 february, sun
sun2800:000wnw5998100 0.1 1009382
03:000nw4895100 0.3 1010349
06:00−1nnw489496 0.1 1012546
09:00−3n568594 0.2 1013600
12:00−2n577796 0.0 1015729
15:00−2nnw478097 0.1 1017760
18:00−3nnw578399 0.1 1018722
21:00−4n588599 0.1 1021742
1 march, mon
mon100:00−4n4786100 0.1 1022691
03:00−5nnw479098 0.2 1023627
06:00−6n5108556 0.0 1025613
09:00−5n598253 0.0 1027669
12:00−4n5872100 0.0 1028845
15:00−3nnw5671100 0.0 1029864
18:00−3nnw3679100 0.0 1030508
21:00−3nw457497 0.0 1031800